User: anonymous   Login
Location: Unspecified
(0.0000°N, 0.0000°E)
Time: 21:21:03
(UTC+00:00)
Language:

STARLINK-31975 - Orbit

View from above orbital plane
View from above orbital plane
View from above satellite
View from above satellite

Ground track
Ground track

The orbit is defined by the following mean orbital elements,

1 59886U          26145.43461686 +.00000000 +00000-0 -33753-4 0 00001
2 59886  43.0033  52.0161 0000396 322.0130  38.0694 15.27581196    00
Epoch (UTC): 25 May 2026 10:25:50
Eccentricity: 0.0000396
inclination: 43.0033°
perigee height: 483 km
apogee height: 483 km
right ascension of ascending node: 52.0161°
argument of perigee: 322.0130°
revolutions per day: 15.27581196
mean anomaly at epoch: 38.0694°

The dashed part of the orbit path shows where the satellite is in the earth's shadow,  

DLR